FW2600 Weather Reports


Display with metric or nautical units.
time (UTC)temp
F
wind
direction
speed
MPH
gust
MPH
rain 1hr
in
rain 24hr
in
rain mn
in
humidity
%
barometer
mb
20260905174443 72 0.0 0.0 0.00 0.00 0.00 14 1015.4
20260905173528 72 0.0 0.0 0.00 0.00 0.00 14 1015.3
20260905172552 73 0.0 0.0 0.00 0.00 0.00 14 1015.3
20260905171456 74 0.0 0.0 0.00 0.00 0.00 14 1015.4
20260905170459 74 0.0 0.0 0.00 0.00 0.00 14 1015.2
20260905165523 74 0.0 0.0 0.00 0.00 0.00 14 1015.2
20260905164507 75 0.0 0.0 0.00 0.00 0.00 14 1015.3
20260905163510 76 0.0 0.0 0.00 0.00 0.00 14 1015.1
20260905162514 77 0.0 0.0 0.00 0.00 0.00 14 1015.1
20260905161537 77 0.0 0.0 0.00 0.00 0.00 14 1015.1
20260905160501 78 0.0 0.0 0.00 0.00 0.00 14 1015.1
20260905155505 79 0.0 0.0 0.00 0.00 0.00 14 1015.2
20260905154529 79 0.0 0.0 0.00 0.00 0.00 14 1015.2
20260905153533 81 0.0 0.0 0.00 0.00 0.00 14 1015.3
20260905152456 82 0.0 0.0 0.00 0.00 0.00 14 1015.3
20260905151440 81 0.0 0.0 0.00 0.00 0.00 14 1015.3
20260905150544 82 0.0 0.0 0.00 0.00 0.00 14 1015.3
20260905145628 82 0.0 0.0 0.00 0.00 0.00 14 1015.3
20260905144451 82 0.0 0.0 0.00 0.00 0.00 14 1015.3
20260905143435 82 0.0 0.0 0.00 0.00 0.00 14 1015.6
20260905142621 83 0.0 0.0 0.00 0.00 0.00 14 1015.7
20260905141505 83 0.0 0.0 0.00 0.00 0.00 14 1015.7
20260905140448 83 0.0 0.0 0.00 0.00 0.00 14 1015.5
20260905135534 82 0.0 0.0 0.00 0.00 0.00 14 1015.6
20260905134538 83 0.0 0.0 0.00 0.00 0.00 14 1015.6
20260905133502 83 0.0 0.0 0.00 0.00 0.00 14 1015.6
20260905132445 82 0.0 0.0 0.00 0.00 0.00 14 1015.6
20260905131611 82 0.0 0.0 0.00 0.00 0.00 14 1015.6
20260905130535 83 0.0 0.0 0.00 0.00 0.00 14 1015.8
20260905125538 83 0.0 0.0 0.00 0.00 0.00 14 1015.9
20260905124502 82 0.0 0.0 0.00 0.00 0.00 14 1015.8
20260905123527 82 0.0 0.0 0.00 0.00 0.00 14 1015.8
20260905122511 82 0.0 0.0 0.00 0.00 0.00 14 1015.8
20260905121535 81 0.0 0.0 0.00 0.00 0.00 14 1015.7
20260905120439 82 0.0 0.0 0.00 0.00 0.00 14 1016.1
20260905115544 80 0.0 0.0 0.00 0.00 0.00 14 1016.0
20260905114508 80 0.0 0.0 0.00 0.00 0.00 14 1016.0
20260905113452 78 0.0 0.0 0.00 0.00 0.00 14 1016.1
20260905112516 77 0.0 0.0 0.00 0.00 0.00 14 1016.0
20260905111600 74 0.0 0.0 0.00 0.00 0.00 14 1015.9
20260905110544 74 0.0 0.0 0.00 0.00 0.00 14 1015.9
20260905105447 74 0.0 0.0 0.00 0.00 0.00 14 1015.9
20260905104631 73 0.0 0.0 0.00 0.00 0.00 14 1015.9
20260905103535 71 0.0 0.0 0.00 0.00 0.00 14 1016.1
20260905102459 70 0.0 0.0 0.00 0.00 0.00 14 1016.1
20260905101442 70 0.0 0.0 0.00 0.00 0.00 14 1016.1
20260905100526 70 0.0 0.0 0.00 0.00 0.00 21 1017.0
20260905095508 70 0.0 0.0 0.00 0.00 0.00 23 1017.0
20260905094511 70 0.0 0.0 0.00 0.00 0.00 24 1017.0
20260905093515 69 0.0 0.0 0.00 0.00 0.00 26 1016.9
20260905092518 68 0.0 0.0 0.00 0.00 0.00 28 1016.8
20260905091501 67 0.0 0.0 0.00 0.00 0.00 29 1016.8
20260905090445 66 0.0 0.0 0.00 0.00 0.00 33 1016.7
20260905085549 64 0.0 0.0 0.00 0.00 0.00 36 1016.6
20260905084512 63 0.0 0.0 0.00 0.00 0.00 36 1016.6
20260905083536 62 0.0 0.0 0.00 0.00 0.00 36 1015.5
20260905082459 61 0.0 0.0 0.00 0.00 0.00 37 1015.4
20260905081523 61 0.0 0.0 0.00 0.00 0.00 37 1015.5
20260905080607 61 0.0 0.0 0.00 0.00 0.00 36 1015.5
20260905075530 61 0.0 0.0 0.00 0.00 0.00 35 1015.5
20260905074534 60 0.0 0.0 0.00 0.00 0.00 37 1015.5
20260905073537 60 0.0 0.0 0.00 0.00 0.00 37 1015.3
20260905072600 60 0.0 0.0 0.00 0.00 0.00 35 1015.3
20260905071503 60 0.0 0.0 0.00 0.00 0.00 34 1015.3
20260905070527 60 0.0 0.0 0.00 0.00 0.00 36 1015.1
20260905065511 60 0.0 0.0 0.00 0.00 0.00 33 1015.1
20260905064455 60 0.0 0.0 0.00 0.00 0.00 33 1015.2
20260905063439 61 0.0 0.0 0.00 0.00 0.00 35 1015.5
20260905062602 61 0.0 0.0 0.00 0.00 0.00 33 1015.5
20260905061526 61 0.0 0.0 0.00 0.00 0.00 31 1015.5
20260905060450 62 0.0 0.0 0.00 0.00 0.00 31 1014.9
20260905055554 62 0.0 0.0 0.00 0.00 0.00 30 1014.9
20260905054617 63 0.0 0.0 0.00 0.00 0.00 32 1015.1
20260905053521 64 0.0 0.0 0.00 0.00 0.00 31 1014.7
20260905052525 64 0.0 0.0 0.00 0.00 0.00 31 1014.7
20260905051628 64 0.0 0.0 0.00 0.00 0.00 29 1014.8
20260905050512 64 0.0 0.0 0.00 0.00 0.00 32 1013.9
20260905045455 64 0.0 0.0 0.00 0.00 0.00 28 1013.9
20260905044519 64 0.0 0.0 0.00 0.00 0.00 27 1014.0
20260905043623 65 0.0 0.0 0.00 0.00 0.00 26 1013.9
20260905042527 65 0.0 0.0 0.00 0.00 0.00 25 1013.9
20260905041528 65 0.0 0.0 0.00 0.00 0.00 21 1014.0
20260905040532 65 0.0 0.0 0.00 0.00 0.00 21 1012.9
20260905035536 66 0.0 0.0 0.00 0.00 0.00 14 1012.9
20260905034519 66 0.0 0.0 0.00 0.00 0.00 14 1012.9
20260905033523 66 0.0 0.0 0.00 0.00 0.00 14 1012.5
20260905032527 66 0.0 0.0 0.00 0.00 0.00 14 1012.5
20260905031530 67 0.0 0.0 0.00 0.00 0.00 14 1012.6
20260905030514 67 0.0 0.0 0.00 0.00 0.00 14 1012.2
20260905025538 67 0.0 0.0 0.00 0.00 0.00 14 1012.2
20260905024541 67 0.0 0.0 0.00 0.00 0.00 14 1012.2
20260905023605 67 0.0 0.0 0.00 0.00 0.00 14 1011.8
20260905022448 68 0.0 0.0 0.00 0.00 0.00 14 1011.9
20260905021532 68 0.0 0.0 0.00 0.00 0.00 14 1011.9
20260905020556 68 0.0 0.0 0.00 0.00 0.00 14 1012.2
20260905015500 69 0.0 0.0 0.00 0.00 0.00 14 1012.3
20260905014503 69 0.0 0.0 0.00 0.00 0.00 14 1012.3
20260905013527 70 0.0 0.0 0.00 0.00 0.00 14 1011.0
20260905012531 70 0.0 0.0 0.00 0.00 0.00 14 1011.0
20260905011514 71 0.0 0.0 0.00 0.00 0.00 14 1011.1
20260905010458 72 0.0 0.0 0.00 0.00 0.00 14 1009.8
20260905005523 73 0.0 0.0 0.00 0.00 0.00 14 1009.9
20260905004506 73 0.0 0.0 0.00 0.00 0.00 14 1009.9
20260905003450 73 0.0 0.0 0.00 0.00 0.00 14 1009.1
20260905002614 73 0.0 0.0 0.00 0.00 0.00 14 1009.1
20260905001518 73 0.0 0.0 0.00 0.00 0.00 14 1009.1
20260905000501 73 0.0 0.0 0.00 0.00 0.00 14 1009.1
20260904235505 73 0.0 0.0 0.00 0.00 0.00 14 1009.1
20260904234530 72 0.0 0.0 0.00 0.00 0.00 14 1009.1
20260904233534 72 0.0 0.0 0.00 0.00 0.00 14 1009.1
20260904232537 72 0.0 0.0 0.00 0.00 0.00 14 1009.1
20260904231441 72 0.0 0.0 0.00 0.00 0.00 14 1009.1
20260904230545 72 0.0 0.0 0.00 0.00 0.00 14 1009.0
20260904225549 72 0.0 0.0 0.00 0.00 0.00 14 1009.0
20260904224532 73 0.0 0.0 0.00 0.00 0.00 14 1009.1
20260904223455 73 0.0 0.0 0.00 0.00 0.00 14 1009.0
20260904222539 73 0.0 0.0 0.00 0.00 0.00 14 1009.0
20260904221502 73 0.0 0.0 0.00 0.00 0.00 14 1009.0
20260904220445 73 0.0 0.0 0.00 0.00 0.00 14 1008.9
20260904215549 74 0.0 0.0 0.00 0.00 0.00 14 1008.8
20260904214552 75 0.0 0.0 0.00 0.00 0.00 14 1008.8
20260904213556 74 0.0 0.0 0.00 0.00 0.00 14 1008.9
20260904212439 75 0.0 0.0 0.00 0.00 0.00 14 1008.9
20260904211542 73 0.0 0.0 0.00 0.00 0.00 14 1008.9
20260904210505 74 0.0 0.0 0.00 0.00 0.00 14 1008.8
20260904205529 75 0.0 0.0 0.00 0.00 0.00 14 1008.8
20260904204553 75 0.0 0.0 0.00 0.00 0.00 14 1008.8
20260904203516 75 0.0 0.0 0.00 0.00 0.00 14 1009.2
20260904202459 75 0.0 0.0 0.00 0.00 0.00 14 1009.2
20260904201503 76 0.0 0.0 0.00 0.00 0.00 14 1009.2
20260904200626 76 0.0 0.0 0.00 0.00 0.00 14 1009.1
20260904195510 77 0.0 0.0 0.00 0.00 0.00 14 1009.0
20260904194453 77 0.0 0.0 0.00 0.00 0.00 14 1009.0
20260904193437 77 0.0 0.0 0.00 0.00 0.00 14 1009.1
20260904192542 78 0.0 0.0 0.00 0.00 0.00 14 1009.1
20260904191526 78 0.0 0.0 0.00 0.00 0.00 14 1009.1
20260904190449 78 0.0 0.0 0.00 0.00 0.00 14 1009.0
20260904185553 79 0.0 0.0 0.00 0.00 0.00 14 1009.0
20260904184537 79 0.0 0.0 0.00 0.00 0.00 14 1009.0
20260904183540 80 0.0 0.0 0.00 0.00 0.00 14 1008.6
20260904182444 80 0.0 0.0 0.00 0.00 0.00 14 1008.5
20260904181528 81 0.0 0.0 0.00 0.00 0.00 14 1008.6
20260904180551 81 0.0 0.0 0.00 0.00 0.00 14 1008.6
20260904175454 82 0.0 0.0 0.00 0.00 0.00 14 1008.6